29.2.2020 Kaasujalka ralli

Tulokset  Keskeyttäneet (34)  AT-pisteet (0)  Tilastot Lähtöön oikeutettujen lista CSV


 << EK3 EK5 >> Yleiskilpailun tulos
Kaasujalka ralli
29.2.2020
EK 4, LUOKKATULOKSET
R-Rallicup
Yellow racing team
Leivon Pub
 
Luokka 1 , Historic gr2,4, a alle 1350 60-90 vm. 2wd , Lähti:6
EK4, 6.8km, nopein: 92.9km/h
SijNroNimiTulosEro
1109Ari Liimatainen €4:23,5
2114Sami Kauppinen4:25,41,9
3111Janne Solatie €4:37,313,8
4113Vesa Båga5:02,038,5
550Timo Hytönen7:04,52:41,0
Tulos EK 4 jälkeen
SijNroNimiTulosEro
1109Ari Liimatainen €7:22,1
2114Sami Kauppinen7:34,8 12,7
3111Janne Solatie €7:45,5 23,4
4113Vesa Båga8:33,8 1:11,7
550Timo Hytönen12:10,6 4:48,5


Keskeyttäneet: 110, Jari Päivärinta €, 4A, Tekninen syy
 
Luokka 3 , F, A, HR alle 1650 2wd , Lähti:11
EK4, 6.8km, nopein: 108.4km/h
SijNroNimiTulosEro
1100Marko Mansikkamäki €3:45,9
299Juho Nykänen €3:46,10,2
3108Raimo Kovanen3:49,13,2
498Mikko Kurkela €3:51,05,1
5105Pasi Martikainen3:55,39,4
6102Sami Jokinen €3:56,610,7
7101Tomi Saari €3:57,511,6
8104Oskari Jauhiainen €3:57,811,9
9107Santtu Pajunpää4:17,031,1
10106Janne Harju4:26,740,8
Tulos EK 4 jälkeen
SijNroNimiTulosEro
199Juho Nykänen €6:25,7
2100Marko Mansikkamäki €6:27,5 1,8
398Mikko Kurkela €6:30,6 4,9
4108Raimo Kovanen6:32,5 6,8
5104Oskari Jauhiainen €6:39,7 14,0
6101Tomi Saari €6:40,9 15,2
7102Sami Jokinen €6:42,6 16,9
8105Pasi Martikainen6:42,8 17,1
9107Santtu Pajunpää7:12,9 47,2
10106Janne Harju7:28,8 1:03,1


Keskeyttäneet: 103, Jani Kuivas €, 4A, Tekninen syy
 
Luokka 4 , F, A, HR alle 2100 2wd , Lähti:16
EK4, 6.8km, nopein: 105.9km/h
SijNroNimiTulosEro
197Lasse Lahikainen3:51,1
295Olli Rämänen3:55,44,3
384Kyösti Kotamäki €3:57,36,2
494Pasi Laitinen4:00,79,6
588Petteri Paavilainen4:01,410,3
686Sami Sabell4:02,911,8
787Mika Kylmälä4:03,912,8
896Henry Isakoff4:06,715,6
991Timo Siik4:10,219,1
1083Miko Jalava €4:15,424,3
1190Mirco Ilminen4:19,728,6
1292juha flyktman4:27,736,6
1385Jussi Kananoja €4:29,538,4
Tulos EK 4 jälkeen
SijNroNimiTulosEro
197Lasse Lahikainen6:37,3
295Olli Rämänen6:37,9 0,6
384Kyösti Kotamäki €6:40,7 3,4
488Petteri Paavilainen6:43,8 6,5
583Miko Jalava €6:47,6 10,3
694Pasi Laitinen6:52,8 15,5
786Sami Sabell6:52,9 15,6
896Henry Isakoff7:00,4 23,1
991Timo Siik7:02,7 25,4
1087Mika Kylmälä7:08,2 30,9
1190Mirco Ilminen7:17,1 39,8
1292juha flyktman7:31,8 54,5
1385Jussi Kananoja €7:33,3 56,0


Keskeyttäneet: 82, Esa Ketomäki €, 4A, Tekninen syy  -   89, Teemu Rajasto, 4A, Tekninen syy  -   93, Joonas Ahokas, 4A, Ulosajo
 
Luokka 5 , F, A, HR yli 2100 2wd , Lähti:10
EK4, 6.8km, nopein: 105.5km/h
SijNroNimiTulosEro
171Sami Ahonen €3:52,1
272Jani Rihu €4:00,88,7
378Hannu Hautakoski4:03,811,7
475Pasi Hirvikoski €4:05,213,1
577Markus Minkkilä4:08,616,5
674Sami Tikkanen €4:14,522,4
776Laurell Henry4:35,243,1
Tulos EK 4 jälkeen
SijNroNimiTulosEro
171Sami Ahonen €6:34,3
272Jani Rihu €6:49,4 15,1
378Hannu Hautakoski6:52,9 18,6
475Pasi Hirvikoski €6:56,0 21,7
577Markus Minkkilä7:04,2 29,9
674Sami Tikkanen €7:08,1 33,8
776Laurell Henry7:46,8 1:12,5


Keskeyttäneet: 73, Antti Rintamäki €, 1B, Tekninen syy  -   79, Esa Puupponen, 4A, Tekninen syy  -   81, Niko Konkola, 4A, Tekninen syy
 
Luokka 6 , Senior 50 v. cc vapaa 2wd , Lähti:16
EK4, 6.8km, nopein: 106.2km/h
SijNroNimiTulosEro
154Pauli Sinkkonen €3:50,5
253Petteri Rantanen €3:53,53,0
356Markku Tuoriniemi €3:55,65,1
465Timo Nousiainen4:02,712,2
558Pasi Kämäräinen €4:03,412,9
663Christer Sundholm4:05,314,8
769Pekka Mustanoja4:05,815,3
864juha kaipainen4:11,420,9
957Jari Muhonen €4:19,428,9
1060Petri Heikkilä €4:21,330,8
1159Ilpo Saari €4:26,235,7
1266Ari Ijäs4:28,237,7
1370Rauno Jaakkola4:38,347,8
1467Jorma Isotalo4:45,755,2
Tulos EK 4 jälkeen
SijNroNimiTulosEro
153Petteri Rantanen €6:33,8
254Pauli Sinkkonen €6:33,9 0,1
356Markku Tuoriniemi €6:39,8 6,0
465Timo Nousiainen6:46,5 12,7
558Pasi Kämäräinen €6:50,2 16,4
669Pekka Mustanoja6:57,9 24,1
764juha kaipainen7:06,8 33,0
857Jari Muhonen €7:15,4 41,6
960Petri Heikkilä €7:20,4 46,6
1063Christer Sundholm7:21,5 47,7
1159Ilpo Saari €7:33,3 59,5
1266Ari Ijäs7:40,5 1:06,7
1370Rauno Jaakkola7:47,1 1:13,3
1467Jorma Isotalo7:59,1 1:25,3


Keskeyttäneet: 55, Timo Ahonen €, 4B, Ulosajo  -   68, Tauno Rantala, 1B, Tekninen syy
 
Luokka 7 , V-1600 alle 1650 gr1, N ja V1600 2wd , Lähti:10
EK4, 6.8km, nopein: 101.4km/h
SijNroNimiTulosEro
143Joonas Tonteri €4:01,5
246Ari Pentinmäki4:06,34,8
345Ilkka Manier €4:08,06,5
444Timo Karhinen €4:12,811,3
542Janne Rissanen €4:16,615,1
651Markus Väätänen4:23,421,9
747Anssi Pihala4:27,626,1
852Petri Riihimäki4:34,332,8
948Jan Andersin4:44,142,6
Tulos EK 4 jälkeen
SijNroNimiTulosEro
143Joonas Tonteri €6:51,3
246Ari Pentinmäki7:01,2 9,9
345Ilkka Manier €7:05,6 14,3
444Timo Karhinen €7:12,4 21,1
542Janne Rissanen €7:19,4 28,1
651Markus Väätänen7:32,2 40,9
747Anssi Pihala7:36,7 45,4
852Petri Riihimäki7:45,6 54,3
948Jan Andersin8:18,8 1:27,5


Keskeyttäneet: 49, Markku Hytönen, 4B, Tekninen syy
 
Luokka 8 , V-2000 alle 2050 gr1, N, V2000 2wd , Lähti:5
EK4, 6.8km, nopein: 102.6km/h
SijNroNimiTulosEro
138Mikko Viitanen €3:58,7
241Toni Ketomäki3:59,30,6
337Kari Mutkala €4:03,34,6
440Kristian Pannula €4:10,611,9
539Rami Härkönen €4:20,021,3
Tulos EK 4 jälkeen
SijNroNimiTulosEro
138Mikko Viitanen €6:48,7
241Toni Ketomäki6:50,9 2,2
337Kari Mutkala €6:53,3 4,6
440Kristian Pannula €7:21,7 33,0
539Rami Härkönen €7:24,7 36,0

 
Luokka 9 , Nuoret V-1600 2wd , Lähti:6
EK4, 6.8km, nopein: 92.5km/h
SijNroNimiTulosEro
1115Tomi Tiilikainen €4:24,7
2119Ville Wikström4:28,43,7
3117Timo Koskinen €4:28,74,0
4116Aatu Hirvikoski €4:41,116,4
5120Jooa Iivari4:47,322,6
6118Luka Manninen4:58,633,9
Tulos EK 4 jälkeen
SijNroNimiTulosEro
1115Tomi Tiilikainen €7:33,8
2117Timo Koskinen €7:35,0 1,2
3119Ville Wikström7:41,7 7,9
4116Aatu Hirvikoski €7:59,7 25,9
5120Jooa Iivari12:53,2 5:19,4
6118Luka Manninen13:04,5 5:30,7

 
Luokka 11 , 4wd cc vapaa Kaikki ikäkaudet , Lähti:4
EK4, 6.8km, nopein: 108.2km/h
SijNroNimiTulosEro
123Tatu Soisalo €3:46,2
225sami tuohinen3:48,52,3
327Timo Takala4:04,918,7
426Henri Alahuhta4:11,225,0
Tulos EK 4 jälkeen
SijNroNimiTulosEro
123Tatu Soisalo €6:21,8
225sami tuohinen6:27,0 5,2
327Timo Takala6:56,1 34,3
426Henri Alahuhta7:04,1 42,3

 
Luokka 12 , 4 wd A, Fin-R cc vapaa Nuotti , Lähti:5
EK4, 6.8km, nopein: 117.5km/h
SijNroNimiTulosEro
14Veli-Matti Saarelainen3:28,3
23Matti Latvala3:41,212,9
35Mikko Suvinen3:46,918,6
42Tommi Rimpeläinen3:51,222,9
51Aatu Tunturi3:58,630,3
Tulos EK 4 jälkeen
SijNroNimiTulosEro
14Veli-Matti Saarelainen6:10,6
23Matti Latvala6:11,7 1,1
35Mikko Suvinen6:31,5 20,9
42Tommi Rimpeläinen6:34,6 24,0
51Aatu Tunturi6:50,4 39,8

 
Luokka 15 , F, A, HR yli 1650 2wd Nuotti , Lähti:16
EK4, 6.8km, nopein: 109.7km/h
SijNroNimiTulosEro
16Max Karhapää €3:43,2
219Marko Kinnunen3:45,92,7
311Benjamin Korhola €3:49,66,4
414Eemil Mielityinen €3:50,37,1
521Tommi Hannuksela3:53,910,7
612Roman Prokhorov €3:57,013,8
718Tuomo Laitila4:02,018,8
810Sami Saari €4:02,919,7
920Ville Jauhiainen4:07,624,4
1022Vesa Rissanen4:07,924,7
1117Jussi Soikkeli4:09,226,0
128Toni Piiroinen €4:14,631,4
1315Juha Niskanen4:28,144,9
147Markku Hakkarainen €4:29,446,2
1516Ari Halmela4:30,347,1
1613Kimmo Johansson €5:22,51:39,3
Tulos EK 4 jälkeen
SijNroNimiTulosEro
16Max Karhapää €6:23,4
219Marko Kinnunen6:28,0 4,6
311Benjamin Korhola €6:37,8 14,4
421Tommi Hannuksela6:42,9 19,5
512Roman Prokhorov €6:52,8 29,4
618Tuomo Laitila6:54,2 30,8
710Sami Saari €6:55,0 31,6
820Ville Jauhiainen6:59,1 35,7
922Vesa Rissanen7:02,7 39,3
1017Jussi Soikkeli7:03,8 40,4
118Toni Piiroinen €7:12,8 49,4
127Markku Hakkarainen €7:36,7 1:13,3
1315Juha Niskanen7:36,9 1:13,5
1416Ari Halmela7:46,6 1:23,2
1513Kimmo Johansson €9:33,1 3:09,7
1614Eemil Mielityinen €14:55,8 8:32,4

 
Luokka 17 , BMW orginal 2wd , Lähti:4
EK4, 6.8km, nopein: 103km/h
SijNroNimiTulosEro
135Sami Hakonen €3:57,7
233Ville Pulkkinen €3:58,81,1
334Tero Karppi €4:05,47,7
436Kimmo Vilenius4:30,332,6
Tulos EK 4 jälkeen
SijNroNimiTulosEro
135Sami Hakonen €6:47,8
234Tero Karppi €6:56,3 8,5
333Ville Pulkkinen €7:13,9 26,1
436Kimmo Vilenius7:43,3 55,5

 
Luokka 20 , Proto cc vapaa 2wd turbot , Lähti:5
EK4, 6.8km, nopein: 102.2km/h
SijNroNimiTulosEro
129Kari Herronen €3:59,6
228Jarno Puupponen €4:01,01,4
332Tomi Mäkinen4:01,31,7
430Petri Katainen €4:04,04,4
531Aki Suni4:33,934,3
Tulos EK 4 jälkeen
SijNroNimiTulosEro
128Jarno Puupponen €6:43,1
232Tomi Mäkinen6:52,6 9,5
330Petri Katainen €6:53,5 10,4
429Kari Herronen €6:55,2 12,1
531Aki Suni7:47,0 1:03,9